Volver al catálogo

STARLINK-38218

ActivoComunicacionesSSO
NORAD 100195·PAYLOAD·🇺🇸 United States

Lanzado Aug 1, 2026 desde Vandenberg Space Force Base

Loading…

Próximos Pases (próximas 24 horas)

TLE

ActualizadoSource: Space-Track

Época: Sep 14, 2026, 13:04 UTC

1 A0195U 26175S   26257.54502903  .00074857  00000-0  49790-3 0  9999
2 A0195  97.2839  99.7619 0001893  27.7439 332.3927 15.75210145  8243

Sigue STARLINK-38218 en tiempo real con AllMySat

Download on the App Store